SCP
0 0 0 0 0 0 0 0 0 0 0 0 0 0 0 0 0 0 0 0 1 1 1 1 1 1 1 1 1 0 0 0 0 0 0 0 0 0 -0 -0 -0 0 0
0 0 0 0 0 0 0 0 0 0 0 0 0 0 0 0 0 0 0 0 1 1 1 1 1 1 0 1 1 1 0 0 0 0 0 0 0 0 -0 -0 -0 -0 0
0 0 0 0 0 0 0 0 0 0 0 0 0 0 0 0 0 0 0 0 0 1 1 1 1 1 1 1 1 1 0 0 0 0 0 0 0 0 0 -0 -0 -0 0
0 0 0 0 0 0 0 0 0 0 0 0 0 0 0 0 0 0 0 0 0 0 0 0 0 1 1 1 1 1 1 0 0 0 0 0 0 0 0 -0 -0 0 0
1 1 0 0 1 0 0 0 0 0 0 0 0 0 0 0 0 0 0 0 0 0 0 0 0 0 0 1 1 1 1 0 0 0 0 0 0 0 0 0 0 0 0
1 1 1 1 1 1 0 0 0 0 0 0 0 0 0 0 0 0 0 0 0 0 0 0 0 0 0 0 0 1 1 1 0 0 0 0 0 0 0 0 0 0 0
2 2 2 2 2 1 1 0 0 0 0 0 0 0 0 0 0 0 0 0 0 0 1 0 0 0 0 0 0 0 0 1 1 0 0 0 0 0 0 0 0 0 0
3 1 2 2 2 2 1 0 0 0 0 0 0 0 0 0 0 1 0 1 1 1 1 1 0 0 0 0 0 0 0 1 0 0 0 0 0 0 0 0 0 0 0
1 3 3 2 2 2 2 1 0 0 0 0 0 0 1 0 0 0 0 0 0 1 1 1 0 0 0 0 0 0 0 0 0 0 0 0 0 0 0 0 0 0 0
1 1 3 3 3 3 2 1 1 0 0 0 0 0 0 0 0 0 0 0 0 0 1 1 1 0 0 0 0 0 0 1 0 0 0 0 0 0 0 0 0 0 0
2 1 1 1 3 2 1 2 1 1 0 0 0 0 0 0 0 0 0 0 0 0 1 1 1 0 0 0 0 0 0 0 0 0 0 0 0 0 0 0 0 0 0
3 2 2 2 2 2 2 1 1 1 1 0 0 1 0 0 0 0 0 0 0 0 0 1 1 0 0 0 0 0 0 0 0 0 0 0 0 0 0 0 0 0 0
0 2 3 3 2 1 3 2 1 0 0 0 0 1 0 0 0 1 1 0 1 0 0 0 0 0 0 0 0 0 0 0 0 0 0 0 0 0 0 0 0 0 0
0 0 1 3 3 3 3 3 3 2 2 1 0 1 -0 0 0 0 0 1 0 0 0 0 0 0 0 0 0 0 0 0 0 0 0 0 0 0 0 0 0 0 0
0 0 0 0 1 3 3 3 1 1 1 1 0 0 0 0 0 1 1 1 1 1 0 0 0 0 0 0 0 0 0 0 0 0 0 0 0 0 0 0 0 0 0
0 0 0 0 0 0 0 2 2 1 1 0 1 1 0 1 1 1 1 1 0 1 1 0 0 0 0 0 0 0 0 0 0 0 0 0 0 0 0 0 0 0 0
1 1 1 1 0 0 1 0 0 1 1 1 1 1 1 2 2 2 1 1 0 0 0 0 0 0 0 0 0 0 0 0 0 0 0 0 0 0 0 0 0 0 0
0 0 0 0 0 1 0 0 0 1 1 1 1 2 2 2 2 2 1 1 0 0 0 0 0 0 0 0 0 0 0 0 0 0 0 0 0 0 0 0 0 0 -0
0 0 0 0 0 0 0 0 0 0 0 1 2 2 2 2 2 2 1 1 0 0 0 0 0 0 0 0 0 0 0 0 0 0 0 0 0 0 0 0 0 0 0
0 0 -0 -0 0 0 0 0 0 0 0 1 2 2 2 2 2 2 1 1 0 0 0 0 0 0 0 0 0 0 0 0 0 0 0 0 0 0 0 0 0 0 0
0 0 -0 -0 -0 -0 0 0 0 0 0 0 1 2 1 2 2 1 1 1 0 0 0 0 0 0 0 0 0 0 0 0 0 0 0 0 0 0 0 0 0 0 0
0 0 0 -0 -0 -0 -0 0 0 0 0 0 0 0 1 2 1 1 1 0 0 0 0 0 0 0 0 0 0 0 0 0 0 0 0 0 0 0 0 0 0 0 0
0 0 -0 -0 -0 -0 -0 -0 0 0 0 0 -0 0 1 2 1 0 0 0 0 0 0 0 0 0 0 0 0 0 0 0 0 0 0 0 0 0 0 0 0 0 0
0 0 0 0 0 -0 -0 -0 0 0 0 0 -0 0 0 1 1 1 0 0 0 0 0 0 0 0 0 0 0 0 0 0 0 0 0 0 0 0 0 0 0 0 0
0 0 0 0 0 -0 -0 0 0 0 0 0 -0 -0 0 1 0 0 0 0 0 0 0 0 0 0 0 0 0 0 0 0 0 0 0 0 0 0 0 0 0 0 0
0 0 0 0 0 0 0 0 0 0 0 -0 -0 -0 0 0 0 0 0 0 0 0 0 0 0 0 0 0 0 0 0 0 0 0 0 0 0 0 0 0 0 0 0
Wind_Speed_500mb
52 47 43 37 31 25 20 15 12 11 12 16 18 21 25 32 35 33 35 37 42 43 43 39 37 33 32 28 29 34 35 34 33 32 30 27 24 26 30 32 32 34 36
58 54 49 44 38 31 22 20 20 18 22 22 24 26 34 35 35 34 34 38 41 39 36 34 39 34 29 26 26 31 36 36 34 35 35 34 31 30 30 33 35 37 39
61 57 52 48 44 36 28 28 28 26 30 35 35 35 38 41 42 37 34 37 41 40 37 33 32 27 29 26 27 27 36 38 36 36 38 39 37 34 32 33 37 38 40
60 58 54 52 49 42 37 37 38 36 39 43 44 52 51 44 37 37 36 45 45 48 44 40 35 32 32 30 27 25 33 38 38 37 40 41 41 37 36 34 36 40 41
47 48 49 48 43 48 45 43 45 41 40 43 43 47 52 50 39 38 38 45 55 50 49 44 41 37 35 28 25 23 27 32 37 39 40 41 43 41 38 37 36 39 41
50 47 43 40 36 43 46 48 50 46 39 38 40 50 57 57 46 42 37 48 55 44 48 48 48 41 34 21 24 30 31 28 32 35 36 40 44 45 40 39 38 39 42
55 43 45 43 44 44 49 49 52 55 52 46 45 52 58 53 46 42 43 50 55 41 43 55 51 47 41 38 31 30 30 34 35 39 36 38 43 43 42 41 39 40 42
55 54 58 53 50 43 46 48 50 60 61 57 56 52 53 47 53 59 52 57 67 47 40 51 53 50 44 41 40 35 34 34 37 35 39 39 40 43 44 42 41 40 42
59 54 58 57 56 42 47 53 50 57 67 69 65 53 27 31 46 61 57 62 59 52 43 46 46 48 47 46 43 40 39 39 32 33 34 36 37 40 44 43 43 40 43
49 58 60 72 44 53 46 41 52 62 74 75 76 69 59 57 48 67 71 73 64 46 46 43 42 45 41 41 48 40 38 39 36 32 29 30 34 35 42 45 43 41 43
77 69 55 62 66 58 41 45 49 58 57 67 70 67 71 62 60 66 78 73 69 50 41 35 35 41 45 48 46 41 38 34 35 32 30 33 38 32 36 44 42 41 41
52 70 83 82 77 77 90 67 59 56 59 68 85 78 74 74 75 70 72 77 80 68 46 41 42 47 46 46 45 40 37 37 35 34 34 34 32 33 31 37 40 40 39
57 64 72 86 80 80 94 97 81 71 78 83 94 100 96 93 84 84 81 79 73 69 56 50 51 52 50 50 45 42 38 40 37 36 35 34 33 31 31 37 38 38 39
55 51 50 57 73 78 67 77 83 74 76 93 96 101 98 86 89 85 81 77 73 72 62 58 55 42 42 46 45 39 41 39 38 37 35 34 34 30 33 35 36 35 33
43 46 46 41 42 44 59 60 59 62 79 69 87 95 93 80 76 79 80 79 79 64 62 57 52 45 42 44 47 40 44 42 42 40 38 34 31 28 32 35 36 34 33
25 30 36 39 43 47 50 53 66 65 63 81 83 74 75 78 71 68 71 63 64 65 69 56 45 43 37 39 44 40 48 45 44 44 40 35 32 27 29 34 35 34 35
27 28 30 36 42 44 49 54 57 65 68 75 76 75 76 75 78 69 64 65 63 63 62 52 47 40 35 39 34 43 45 45 48 40 34 30 29 25 26 31 32 32 31
38 38 37 40 46 46 48 53 57 58 70 70 75 76 75 75 82 76 66 62 60 59 60 50 38 39 39 37 38 40 44 47 43 34 28 27 25 25 25 25 27 28 28
44 45 47 51 52 53 53 57 59 60 63 62 69 79 78 77 79 72 60 56 50 47 50 38 40 44 44 41 38 39 37 34 33 23 24 24 26 28 28 25 27 28 27
57 60 62 67 64 60 57 59 59 60 64 62 65 69 72 76 74 66 58 55 47 48 40 42 47 50 44 40 38 33 28 27 15 15 18 23 27 28 28 29 29 30 29
60 60 62 61 63 64 58 59 57 62 65 66 61 63 65 73 69 58 54 53 50 47 44 50 48 50 43 43 39 28 28 21 16 11 14 21 25 25 26 31 31 30 31
67 70 74 78 80 76 72 67 63 62 65 68 66 64 70 71 65 57 52 48 46 47 47 54 55 55 45 40 34 32 24 24 19 17 15 19 22 23 23 25 29 31 33
73 77 83 88 93 91 82 72 62 61 66 65 70 68 72 68 66 59 57 51 44 41 45 49 61 57 38 39 35 31 25 26 20 14 20 21 21 23 23 26 29 33 36
82 85 87 91 93 94 87 78 66 63 65 65 71 74 73 67 68 65 57 47 40 46 47 53 44 32 36 34 32 24 19 24 23 22 20 26 20 23 22 23 27 30 34
91 95 97 97 97 104 102 85 71 67 68 74 72 72 74 66 60 52 55 50 45 44 46 49 40 37 36 31 28 28 35 36 33 30 29 26 21 22 22 24 25 26 28
87 87 91 89 81 76 85 83 70 69 72 77 73 66 66 61 54 50 58 49 42 47 49 38 37 37 36 32 30 29 31 38 38 30 31 34 29 18 12 15 15 18 22
Wind_Direction_500mb
218 222 225 231 235 236 233 252 275 283 300 311 314 311 325 331 326 323 322 319 310 305 299 296 290 292 295 303 291 269 265 262 266 265 262 263 264 266 255 244 239 235 226
223 225 229 233 237 238 241 258 273 277 284 291 299 311 321 320 320 321 322 315 308 308 304 307 297 287 288 294 301 267 262 263 264 265 260 262 262 274 259 246 238 236 234
225 230 235 240 244 247 251 259 269 276 285 293 299 302 313 319 321 322 316 324 318 309 302 305 304 291 288 292 292 273 259 263 263 267 262 263 261 273 261 249 242 238 239
232 232 235 243 247 249 252 261 268 274 279 286 294 296 299 299 306 313 318 330 325 317 302 301 295 298 290 285 285 292 262 259 263 270 267 263 262 267 263 254 243 240 239
226 230 235 240 245 246 247 253 261 261 270 275 283 287 288 292 296 314 324 341 334 315 302 301 293 294 293 273 285 289 289 262 262 268 270 263 263 265 262 257 248 240 238
218 225 235 240 241 249 252 250 254 252 258 265 275 281 288 296 285 296 317 322 319 308 297 293 292 287 281 281 274 275 273 276 262 265 267 266 262 263 263 255 252 241 239
224 227 241 246 248 254 263 265 264 260 263 271 279 301 295 294 287 287 308 310 313 295 290 290 287 285 278 270 269 276 272 283 273 269 263 266 262 257 260 256 254 245 238
232 249 247 249 249 255 263 263 270 266 264 267 266 279 293 297 290 284 287 300 301 288 293 293 279 281 275 271 266 270 275 282 280 276 274 265 259 254 256 254 252 247 241
243 242 250 257 249 256 260 267 269 271 271 274 270 265 266 274 289 293 283 279 296 283 295 290 274 278 273 267 268 268 276 281 279 281 278 266 261 256 253 251 250 248 242
225 250 245 246 242 262 267 269 272 273 269 274 279 274 271 269 280 295 293 288 299 299 289 281 279 276 271 268 268 268 276 278 279 282 284 283 272 258 248 246 245 246 243
243 234 242 253 243 251 266 275 273 280 286 288 281 277 278 270 272 267 278 289 291 300 278 290 282 274 267 266 268 264 272 278 279 275 275 284 280 273 249 242 242 241 244
243 240 237 236 261 255 251 263 271 285 292 299 291 285 277 266 281 275 265 281 285 286 284 284 277 276 271 267 261 264 270 276 278 279 286 289 284 275 252 243 240 240 241
244 243 244 242 245 258 258 257 265 273 274 276 288 289 285 276 274 267 266 275 283 290 284 281 287 275 264 262 259 264 269 274 276 283 285 285 279 269 249 242 240 237 240
241 241 245 248 246 242 247 254 259 251 258 257 270 280 279 279 275 270 270 272 281 281 277 279 291 275 260 264 258 262 268 268 275 279 283 288 278 262 247 242 238 239 242
245 241 241 248 246 241 239 242 255 253 245 241 266 273 272 274 281 277 277 266 264 260 271 278 280 278 262 261 253 257 264 265 274 283 282 280 277 261 245 237 232 236 241
253 249 247 256 256 254 254 244 246 251 243 239 270 270 276 279 282 284 278 275 267 262 265 275 277 279 265 254 248 253 259 263 278 283 278 270 267 260 239 230 228 234 235
279 281 270 264 270 263 261 263 261 257 264 263 266 272 271 273 282 281 273 271 265 256 259 266 272 270 261 246 250 249 262 274 281 280 277 262 256 246 229 221 224 231 226
274 279 281 278 276 274 272 269 268 259 258 263 261 262 267 274 279 275 271 270 266 255 255 263 261 255 241 240 242 255 267 280 279 275 260 247 241 230 216 215 222 222 223
274 279 280 282 286 287 283 274 275 270 269 270 268 267 269 276 279 276 267 266 258 252 253 252 249 244 234 236 243 260 278 286 287 255 246 237 230 223 219 225 223 223 224
276 279 283 288 287 286 284 284 278 277 272 278 276 273 270 271 276 273 267 260 252 246 245 248 246 246 240 241 248 264 279 283 277 251 244 224 221 220 224 224 224 223 225
283 287 290 290 290 289 284 284 284 281 276 276 279 275 273 269 272 271 259 254 241 241 242 243 240 236 239 239 253 265 275 260 267 253 229 218 220 228 231 226 228 229 230
270 277 288 291 293 292 286 281 282 283 278 274 276 275 275 272 272 262 257 245 239 243 246 243 236 234 245 248 254 262 260 240 243 253 236 225 223 224 227 227 230 231 231
272 277 282 286 287 288 283 282 280 278 281 274 269 270 275 270 268 255 247 235 236 246 251 246 242 244 240 252 254 246 251 244 251 254 226 229 235 234 232 234 237 236 236
278 279 279 280 281 281 279 282 278 278 281 276 274 269 272 273 263 252 235 229 241 243 246 244 248 247 248 248 246 246 263 243 235 229 234 234 239 258 246 240 244 242 238
279 278 280 277 273 271 273 277 274 278 279 277 275 268 266 269 255 231 226 226 232 241 244 239 232 237 244 238 238 237 229 224 226 225 231 227 244 249 259 249 250 240 233
279 277 275 273 271 272 272 268 267 275 276 279 280 272 263 254 232 221 226 224 239 240 239 231 231 239 238 236 232 232 239 238 228 233 234 231 244 243 274 249 234 238 240
Wind_Speed_850mb
52 47 43 37 31 25 20 15 12 11 12 16 18 21 25 32 35 33 35 37 42 43 43 39 37 33 32 28 29 34 35 34 33 32 30 27 24 26 30 32 32 34 36
58 54 49 44 38 31 22 20 20 18 22 22 24 26 34 35 35 34 34 38 41 39 36 34 39 34 29 26 26 31 36 36 34 35 35 34 31 30 30 33 35 37 39
61 57 52 48 44 36 28 28 28 26 30 35 35 35 38 41 42 37 34 37 41 40 37 33 32 27 29 26 27 27 36 38 36 36 38 39 37 34 32 33 37 38 40
60 58 54 52 49 42 37 37 38 36 39 43 44 52 51 44 37 37 36 45 45 48 44 40 35 32 32 30 27 25 33 38 38 37 40 41 41 37 36 34 36 40 41
47 48 49 48 43 48 45 43 45 41 40 43 43 47 52 50 39 38 38 45 55 50 49 44 41 37 35 28 25 23 27 32 37 39 40 41 43 41 38 37 36 39 41
50 47 43 40 36 43 46 48 50 46 39 38 40 50 57 57 46 42 37 48 55 44 48 48 48 41 34 21 24 30 31 28 32 35 36 40 44 45 40 39 38 39 42
55 43 45 43 44 44 49 49 52 55 52 46 45 52 58 53 46 42 43 50 55 41 43 55 51 47 41 38 31 30 30 34 35 39 36 38 43 43 42 41 39 40 42
55 54 58 53 50 43 46 48 50 60 61 57 56 52 53 47 53 59 52 57 67 47 40 51 53 50 44 41 40 35 34 34 37 35 39 39 40 43 44 42 41 40 42
59 54 58 57 56 42 47 53 50 57 67 69 65 53 27 31 46 61 57 62 59 52 43 46 46 48 47 46 43 40 39 39 32 33 34 36 37 40 44 43 43 40 43
49 58 60 72 44 53 46 41 52 62 74 75 76 69 59 57 48 67 71 73 64 46 46 43 42 45 41 41 48 40 38 39 36 32 29 30 34 35 42 45 43 41 43
77 69 55 62 66 58 41 45 49 58 57 67 70 67 71 62 60 66 78 73 69 50 41 35 35 41 45 48 46 41 38 34 35 32 30 33 38 32 36 44 42 41 41
52 70 83 82 77 77 90 67 59 56 59 68 85 78 74 74 75 70 72 77 80 68 46 41 42 47 46 46 45 40 37 37 35 34 34 34 32 33 31 37 40 40 39
57 64 72 86 80 80 94 97 81 71 78 83 94 100 96 93 84 84 81 79 73 69 56 50 51 52 50 50 45 42 38 40 37 36 35 34 33 31 31 37 38 38 39
55 51 50 57 73 78 67 77 83 74 76 93 96 101 98 86 89 85 81 77 73 72 62 58 55 42 42 46 45 39 41 39 38 37 35 34 34 30 33 35 36 35 33
43 46 46 41 42 44 59 60 59 62 79 69 87 95 93 80 76 79 80 79 79 64 62 57 52 45 42 44 47 40 44 42 42 40 38 34 31 28 32 35 36 34 33
25 30 36 39 43 47 50 53 66 65 63 81 83 74 75 78 71 68 71 63 64 65 69 56 45 43 37 39 44 40 48 45 44 44 40 35 32 27 29 34 35 34 35
27 28 30 36 42 44 49 54 57 65 68 75 76 75 76 75 78 69 64 65 63 63 62 52 47 40 35 39 34 43 45 45 48 40 34 30 29 25 26 31 32 32 31
38 38 37 40 46 46 48 53 57 58 70 70 75 76 75 75 82 76 66 62 60 59 60 50 38 39 39 37 38 40 44 47 43 34 28 27 25 25 25 25 27 28 28
44 45 47 51 52 53 53 57 59 60 63 62 69 79 78 77 79 72 60 56 50 47 50 38 40 44 44 41 38 39 37 34 33 23 24 24 26 28 28 25 27 28 27
57 60 62 67 64 60 57 59 59 60 64 62 65 69 72 76 74 66 58 55 47 48 40 42 47 50 44 40 38 33 28 27 15 15 18 23 27 28 28 29 29 30 29
60 60 62 61 63 64 58 59 57 62 65 66 61 63 65 73 69 58 54 53 50 47 44 50 48 50 43 43 39 28 28 21 16 11 14 21 25 25 26 31 31 30 31
67 70 74 78 80 76 72 67 63 62 65 68 66 64 70 71 65 57 52 48 46 47 47 54 55 55 45 40 34 32 24 24 19 17 15 19 22 23 23 25 29 31 33
73 77 83 88 93 91 82 72 62 61 66 65 70 68 72 68 66 59 57 51 44 41 45 49 61 57 38 39 35 31 25 26 20 14 20 21 21 23 23 26 29 33 36
82 85 87 91 93 94 87 78 66 63 65 65 71 74 73 67 68 65 57 47 40 46 47 53 44 32 36 34 32 24 19 24 23 22 20 26 20 23 22 23 27 30 34
91 95 97 97 97 104 102 85 71 67 68 74 72 72 74 66 60 52 55 50 45 44 46 49 40 37 36 31 28 28 35 36 33 30 29 26 21 22 22 24 25 26 28
87 87 91 89 81 76 85 83 70 69 72 77 73 66 66 61 54 50 58 49 42 47 49 38 37 37 36 32 30 29 31 38 38 30 31 34 29 18 12 15 15 18 22
Wind_Direction_850mb
218 222 225 231 235 236 233 252 275 283 300 311 314 311 325 331 326 323 322 319 310 305 299 296 290 292 295 303 291 269 265 262 266 265 262 263 264 266 255 244 239 235 226
223 225 229 233 237 238 241 258 273 277 284 291 299 311 321 320 320 321 322 315 308 308 304 307 297 287 288 294 301 267 262 263 264 265 260 262 262 274 259 246 238 236 234
225 230 235 240 244 247 251 259 269 276 285 293 299 302 313 319 321 322 316 324 318 309 302 305 304 291 288 292 292 273 259 263 263 267 262 263 261 273 261 249 242 238 239
232 232 235 243 247 249 252 261 268 274 279 286 294 296 299 299 306 313 318 330 325 317 302 301 295 298 290 285 285 292 262 259 263 270 267 263 262 267 263 254 243 240 239
226 230 235 240 245 246 247 253 261 261 270 275 283 287 288 292 296 314 324 341 334 315 302 301 293 294 293 273 285 289 289 262 262 268 270 263 263 265 262 257 248 240 238
218 225 235 240 241 249 252 250 254 252 258 265 275 281 288 296 285 296 317 322 319 308 297 293 292 287 281 281 274 275 273 276 262 265 267 266 262 263 263 255 252 241 239
224 227 241 246 248 254 263 265 264 260 263 271 279 301 295 294 287 287 308 310 313 295 290 290 287 285 278 270 269 276 272 283 273 269 263 266 262 257 260 256 254 245 238
232 249 247 249 249 255 263 263 270 266 264 267 266 279 293 297 290 284 287 300 301 288 293 293 279 281 275 271 266 270 275 282 280 276 274 265 259 254 256 254 252 247 241
243 242 250 257 249 256 260 267 269 271 271 274 270 265 266 274 289 293 283 279 296 283 295 290 274 278 273 267 268 268 276 281 279 281 278 266 261 256 253 251 250 248 242
225 250 245 246 242 262 267 269 272 273 269 274 279 274 271 269 280 295 293 288 299 299 289 281 279 276 271 268 268 268 276 278 279 282 284 283 272 258 248 246 245 246 243
243 234 242 253 243 251 266 275 273 280 286 288 281 277 278 270 272 267 278 289 291 300 278 290 282 274 267 266 268 264 272 278 279 275 275 284 280 273 249 242 242 241 244
243 240 237 236 261 255 251 263 271 285 292 299 291 285 277 266 281 275 265 281 285 286 284 284 277 276 271 267 261 264 270 276 278 279 286 289 284 275 252 243 240 240 241
244 243 244 242 245 258 258 257 265 273 274 276 288 289 285 276 274 267 266 275 283 290 284 281 287 275 264 262 259 264 269 274 276 283 285 285 279 269 249 242 240 237 240
241 241 245 248 246 242 247 254 259 251 258 257 270 280 279 279 275 270 270 272 281 281 277 279 291 275 260 264 258 262 268 268 275 279 283 288 278 262 247 242 238 239 242
245 241 241 248 246 241 239 242 255 253 245 241 266 273 272 274 281 277 277 266 264 260 271 278 280 278 262 261 253 257 264 265 274 283 282 280 277 261 245 237 232 236 241
253 249 247 256 256 254 254 244 246 251 243 239 270 270 276 279 282 284 278 275 267 262 265 275 277 279 265 254 248 253 259 263 278 283 278 270 267 260 239 230 228 234 235
279 281 270 264 270 263 261 263 261 257 264 263 266 272 271 273 282 281 273 271 265 256 259 266 272 270 261 246 250 249 262 274 281 280 277 262 256 246 229 221 224 231 226
274 279 281 278 276 274 272 269 268 259 258 263 261 262 267 274 279 275 271 270 266 255 255 263 261 255 241 240 242 255 267 280 279 275 260 247 241 230 216 215 222 222 223
274 279 280 282 286 287 283 274 275 270 269 270 268 267 269 276 279 276 267 266 258 252 253 252 249 244 234 236 243 260 278 286 287 255 246 237 230 223 219 225 223 223 224
276 279 283 288 287 286 284 284 278 277 272 278 276 273 270 271 276 273 267 260 252 246 245 248 246 246 240 241 248 264 279 283 277 251 244 224 221 220 224 224 224 223 225
283 287 290 290 290 289 284 284 284 281 276 276 279 275 273 269 272 271 259 254 241 241 242 243 240 236 239 239 253 265 275 260 267 253 229 218 220 228 231 226 228 229 230
270 277 288 291 293 292 286 281 282 283 278 274 276 275 275 272 272 262 257 245 239 243 246 243 236 234 245 248 254 262 260 240 243 253 236 225 223 224 227 227 230 231 231
272 277 282 286 287 288 283 282 280 278 281 274 269 270 275 270 268 255 247 235 236 246 251 246 242 244 240 252 254 246 251 244 251 254 226 229 235 234 232 234 237 236 236
278 279 279 280 281 281 279 282 278 278 281 276 274 269 272 273 263 252 235 229 241 243 246 244 248 247 248 248 246 246 263 243 235 229 234 234 239 258 246 240 244 242 238
279 278 280 277 273 271 273 277 274 278 279 277 275 268 266 269 255 231 226 226 232 241 244 239 232 237 244 238 238 237 229 224 226 225 231 227 244 249 259 249 250 240 233
279 277 275 273 271 272 272 268 267 275 276 279 280 272 263 254 232 221 226 224 239 240 239 231 231 239 238 236 232 232 239 238 228 233 234 231 244 243 274 249 234 238 240